QPF
0.01 0.01 0.01 0.01 0.01 0.00 0.01 0.01 0.01 0.00 0.00 0.01 0.01 0.00 0.01 0.01 0.01 0.01 0.02 0.03 0.02 0.01 0.01 0.01 0.01 0.01 0.01 0.01 0.01 0.01 0.02 0.03 0.04 0.04 0.04 0.02 0.03 0.06 0.12 0.15 0.19 0.19 0.13 0.09
0.01 0.01 0.00 0.00 0.00 0.00 0.01 0.01 0.01 0.00 0.00 0.00 0.00 0.00 0.00 0.01 0.01 0.02 0.03 0.03 0.03 0.02 0.02 0.02 0.01 0.01 0.01 0.01 0.01 0.01 0.03 0.04 0.04 0.05 0.04 0.02 0.02 0.05 0.11 0.15 0.19 0.20 0.16 0.10
0.01 0.01 0.00 0.00 0.00 0.00 0.00 0.01 0.01 0.01 0.00 0.00 0.00 0.01 0.01 0.02 0.02 0.02 0.03 0.03 0.04 0.03 0.03 0.03 0.02 0.01 0.01 0.01 0.01 0.01 0.02 0.03 0.04 0.04 0.05 0.03 0.02 0.05 0.10 0.15 0.21 0.22 0.18 0.12
0.01 0.00 0.00 0.00 0.01 0.00 0.00 0.01 0.01 0.01 0.01 0.01 0.01 0.01 0.01 0.02 0.02 0.02 0.02 0.03 0.04 0.03 0.04 0.04 0.03 0.02 0.01 0.01 0.00 0.01 0.01 0.02 0.04 0.05 0.06 0.04 0.03 0.05 0.08 0.12 0.19 0.21 0.19 0.15
0.01 0.00 0.01 0.00 0.00 0.00 0.00 0.01 0.01 0.01 0.01 0.01 0.01 0.01 0.01 0.02 0.02 0.02 0.02 0.02 0.03 0.03 0.04 0.05 0.04 0.02 0.02 0.01 0.00 0.00 0.01 0.01 0.03 0.05 0.06 0.05 0.04 0.04 0.07 0.11 0.16 0.20 0.19 0.15
0.00 0.00 0.00 0.00 0.00 0.00 0.00 0.01 0.01 0.01 0.01 0.02 0.01 0.01 0.01 0.01 0.01 0.02 0.02 0.02 0.03 0.05 0.05 0.05 0.05 0.03 0.02 0.02 0.01 0.01 0.01 0.01 0.02 0.05 0.06 0.07 0.05 0.05 0.07 0.10 0.15 0.21 0.20 0.17
0.00 0.00 0.00 0.00 0.00 0.00 0.01 0.02 0.03 0.03 0.03 0.01 0.01 0.01 0.01 0.00 0.01 0.01 0.02 0.03 0.03 0.05 0.07 0.07 0.08 0.06 0.03 0.03 0.03 0.02 0.01 0.02 0.02 0.04 0.07 0.08 0.07 0.06 0.07 0.09 0.13 0.19 0.21 0.19
0.00 0.00 0.00 0.00 0.00 0.00 0.01 0.01 0.02 0.02 0.01 0.01 0.00 0.01 0.01 0.01 0.01 0.01 0.02 0.02 0.02 0.04 0.07 0.07 0.08 0.10 0.07 0.05 0.04 0.03 0.02 0.02 0.02 0.04 0.06 0.08 0.09 0.08 0.08 0.09 0.11 0.16 0.19 0.18
0.00 0.00 0.00 0.00 0.00 0.00 0.00 0.01 0.01 0.01 0.01 0.01 0.00 0.00 0.01 0.01 0.01 0.01 0.01 0.02 0.02 0.03 0.06 0.06 0.06 0.08 0.11 0.08 0.05 0.03 0.03 0.02 0.03 0.04 0.07 0.07 0.08 0.09 0.08 0.08 0.10 0.12 0.17 0.17
0.00 0.00 0.00 0.00 0.00 0.01 0.00 0.00 0.01 0.02 0.02 0.01 0.01 0.01 0.01 0.01 0.01 0.01 0.01 0.01 0.03 0.05 0.06 0.07 0.07 0.07 0.10 0.12 0.10 0.07 0.05 0.04 0.03 0.03 0.06 0.09 0.08 0.07 0.08 0.10 0.12 0.12 0.14 0.14
0.00 0.01 0.01 0.00 0.00 0.01 0.00 0.01 0.01 0.01 0.01 0.01 0.01 0.01 0.01 0.01 0.01 0.01 0.01 0.01 0.03 0.05 0.07 0.09 0.10 0.11 0.11 0.10 0.11 0.10 0.08 0.06 0.04 0.03 0.04 0.07 0.11 0.09 0.09 0.13 0.15 0.15 0.13 0.13
0.00 0.01 0.01 0.01 0.00 0.00 0.00 0.00 0.01 0.01 0.01 0.01 0.01 0.01 0.01 0.00 0.01 0.01 0.01 0.01 0.02 0.03 0.06 0.07 0.08 0.12 0.13 0.11 0.11 0.11 0.10 0.08 0.07 0.06 0.05 0.06 0.10 0.13 0.12 0.15 0.18 0.19 0.15 0.14
0.01 0.01 0.01 0.01 0.01 0.01 0.01 0.00 0.01 0.01 0.01 0.01 0.01 0.02 0.01 0.00 0.00 0.01 0.01 0.01 0.02 0.03 0.05 0.06 0.07 0.11 0.14 0.14 0.12 0.12 0.12 0.12 0.11 0.09 0.07 0.07 0.09 0.11 0.11 0.12 0.15 0.18 0.18 0.16
0.02 0.01 0.01 0.01 0.01 0.01 0.01 0.00 0.01 0.01 0.02 0.01 0.01 0.01 0.00 0.00 0.00 0.00 0.01 0.02 0.02 0.03 0.04 0.05 0.06 0.08 0.10 0.12 0.12 0.12 0.12 0.12 0.09 0.08 0.08 0.08 0.09 0.09 0.09 0.10 0.11 0.13 0.16 0.17
0.01 0.01 0.01 0.00 0.00 0.00 0.00 0.00 0.00 0.01 0.02 0.02 0.01 0.00 0.00 0.00 0.00 0.01 0.01 0.01 0.02 0.02 0.03 0.06 0.07 0.07 0.07 0.08 0.10 0.11 0.11 0.09 0.08 0.07 0.07 0.07 0.07 0.07 0.08 0.08 0.11 0.12 0.13 0.14
0.01 0.01 0.01 0.00 0.00 0.00 0.00 0.00 0.00 0.01 0.01 0.01 0.01 0.00 0.00 0.00 0.00 0.00 0.01 0.01 0.02 0.02 0.03 0.04 0.06 0.07 0.06 0.06 0.07 0.07 0.07 0.07 0.06 0.06 0.06 0.06 0.06 0.05 0.05 0.06 0.08 0.11 0.11 0.11
0.01 0.02 0.02 0.01 0.00 0.00 0.01 0.01 0.00 0.00 0.01 0.01 0.01 0.01 0.00 0.00 0.00 0.01 0.01 0.01 0.02 0.02 0.02 0.03 0.05 0.05 0.05 0.05 0.05 0.05 0.05 0.05 0.05 0.05 0.04 0.04 0.05 0.05 0.04 0.05 0.05 0.07 0.08 0.07
0.02 0.02 0.03 0.02 0.01 0.01 0.01 0.00 0.01 0.01 0.01 0.00 0.01 0.01 0.01 0.01 0.01 0.01 0.01 0.01 0.02 0.02 0.02 0.03 0.04 0.04 0.05 0.05 0.04 0.04 0.03 0.03 0.03 0.04 0.04 0.03 0.03 0.04 0.03 0.03 0.04 0.05 0.07 0.07
0.02 0.03 0.04 0.03 0.02 0.01 0.01 0.00 0.01 0.01 0.01 0.01 0.01 0.01 0.01 0.00 0.01 0.01 0.01 0.01 0.02 0.02 0.02 0.03 0.03 0.04 0.04 0.04 0.03 0.02 0.02 0.02 0.02 0.02 0.02 0.03 0.02 0.02 0.02 0.03 0.03 0.04 0.06 0.07
0.01 0.02 0.04 0.04 0.03 0.01 0.00 0.00 0.00 0.01 0.02 0.01 0.01 0.01 0.01 0.00 0.01 0.01 0.01 0.01 0.01 0.02 0.02 0.03 0.03 0.03 0.03 0.03 0.02 0.02 0.02 0.02 0.02 0.02 0.02 0.02 0.02 0.02 0.02 0.02 0.03 0.03 0.04 0.06
0.01 0.02 0.03 0.03 0.03 0.01 0.01 0.00 0.00 0.02 0.02 0.01 0.01 0.01 0.01 0.01 0.01 0.01 0.01 0.01 0.01 0.02 0.02 0.02 0.02 0.02 0.02 0.02 0.03 0.03 0.02 0.02 0.02 0.02 0.02 0.02 0.02 0.02 0.02 0.02 0.02 0.02 0.03 0.03
0.01 0.02 0.02 0.02 0.03 0.02 0.00 0.00 0.01 0.02 0.01 0.01 0.01 0.01 0.01 0.01 0.01 0.01 0.01 0.01 0.01 0.01 0.01 0.01 0.01 0.02 0.02 0.02 0.03 0.03 0.03 0.02 0.02 0.02 0.02 0.02 0.02 0.02 0.02 0.02 0.02 0.02 0.02 0.02
0.01 0.01 0.01 0.02 0.02 0.01 0.01 0.01 0.02 0.02 0.02 0.01 0.01 0.01 0.01 0.01 0.01 0.01 0.01 0.01 0.01 0.01 0.01 0.01 0.01 0.01 0.01 0.01 0.02 0.03 0.03 0.02 0.02 0.02 0.02 0.02 0.02 0.02 0.02 0.03 0.03 0.02 0.02 0.02
0.01 0.01 0.01 0.02 0.01 0.01 0.01 0.02 0.02 0.02 0.02 0.02 0.01 0.01 0.01 0.01 0.01 0.01 0.01 0.00 0.01 0.01 0.01 0.01 0.01 0.01 0.01 0.01 0.01 0.02 0.02 0.03 0.03 0.03 0.02 0.02 0.02 0.02 0.02 0.02 0.02 0.02 0.02 0.02
0.01 0.01 0.02 0.02 0.01 0.01 0.01 0.01 0.01 0.02 0.01 0.01 0.01 0.01 0.01 0.01 0.01 0.01 0.01 0.01 0.01 0.01 0.01 0.01 0.01 0.01 0.01 0.01 0.01 0.01 0.02 0.02 0.03 0.03 0.03 0.02 0.02 0.02 0.02 0.02 0.03 0.03 0.03 0.03
0.02 0.02 0.03 0.03 0.02 0.02 0.02 0.02 0.01 0.01 0.01 0.01 0.01 0.01 0.01 0.01 0.01 0.01 0.01 0.00 0.00 0.00 0.00 0.01 0.01 0.01 0.01 0.01 0.01 0.01 0.01 0.02 0.02 0.03 0.03 0.03 0.02 0.02 0.02 0.03 0.03 0.04 0.04 0.03
MSLP
1015.29 1015.12 1015.09 1015.22 1015.50 1015.88 1016.33 1016.75 1017.08 1017.26 1017.26 1017.07 1016.73 1016.32 1015.92 1015.62 1015.49 1015.58 1015.93 1016.51 1017.28 1018.19 1019.17 1020.15 1021.09 1021.95 1022.69 1023.31 1023.81 1024.19 1024.45 1024.62 1024.69 1024.70 1024.64 1024.55 1024.43 1024.31 1024.19 1024.08 1023.97 1023.85 1023.73 1023.59
1015.94 1015.85 1015.88 1016.03 1016.30 1016.63 1016.98 1017.27 1017.44 1017.45 1017.28 1016.94 1016.48 1015.98 1015.50 1015.15 1014.99 1015.08 1015.42 1016.00 1016.77 1017.69 1018.69 1019.69 1020.66 1021.54 1022.32 1022.98 1023.52 1023.94 1024.23 1024.42 1024.52 1024.53 1024.47 1024.37 1024.23 1024.09 1023.93 1023.78 1023.63 1023.48 1023.34 1023.18
1016.76 1016.82 1016.96 1017.18 1017.46 1017.73 1017.96 1018.08 1018.04 1017.83 1017.44 1016.92 1016.31 1015.69 1015.16 1014.79 1014.65 1014.77 1015.15 1015.76 1016.56 1017.50 1018.49 1019.49 1020.45 1021.33 1022.11 1022.77 1023.32 1023.76 1024.08 1024.28 1024.39 1024.40 1024.33 1024.19 1024.02 1023.82 1023.60 1023.38 1023.18 1022.97 1022.78 1022.60
1017.63 1017.90 1018.22 1018.54 1018.85 1019.07 1019.17 1019.09 1018.81 1018.34 1017.71 1016.97 1016.20 1015.49 1014.92 1014.58 1014.49 1014.68 1015.14 1015.82 1016.67 1017.62 1018.61 1019.58 1020.50 1021.33 1022.07 1022.71 1023.24 1023.66 1023.98 1024.19 1024.29 1024.29 1024.19 1024.01 1023.78 1023.50 1023.20 1022.90 1022.61 1022.34 1022.09 1021.87
1018.43 1018.94 1019.46 1019.92 1020.28 1020.46 1020.43 1020.16 1019.64 1018.91 1018.04 1017.09 1016.17 1015.38 1014.80 1014.50 1014.50 1014.81 1015.37 1016.14 1017.05 1018.02 1019.00 1019.93 1020.78 1021.54 1022.20 1022.77 1023.25 1023.64 1023.94 1024.12 1024.21 1024.18 1024.04 1023.80 1023.50 1023.14 1022.75 1022.36 1021.99 1021.64 1021.33 1021.07
1019.06 1019.81 1020.53 1021.13 1021.54 1021.70 1021.57 1021.13 1020.40 1019.44 1018.35 1017.23 1016.20 1015.36 1014.80 1014.58 1014.69 1015.12 1015.81 1016.68 1017.65 1018.64 1019.59 1020.45 1021.22 1021.88 1022.45 1022.93 1023.34 1023.67 1023.92 1024.07 1024.11 1024.04 1023.85 1023.56 1023.18 1022.74 1022.26 1021.79 1021.33 1020.92 1020.56 1020.26
1019.50 1020.43 1021.30 1022.02 1022.49 1022.64 1022.44 1021.87 1020.98 1019.86 1018.62 1017.39 1016.29 1015.45 1014.93 1014.80 1015.03 1015.58 1016.39 1017.34 1018.36 1019.36 1020.27 1021.07 1021.74 1022.30 1022.75 1023.13 1023.45 1023.70 1023.89 1023.99 1023.98 1023.86 1023.62 1023.26 1022.82 1022.30 1021.75 1021.21 1020.69 1020.23 1019.83 1019.50
1019.75 1020.79 1021.76 1022.54 1023.04 1023.19 1022.95 1022.31 1021.34 1020.13 1018.82 1017.55 1016.45 1015.64 1015.19 1015.16 1015.50 1016.15 1017.04 1018.05 1019.09 1020.07 1020.94 1021.66 1022.23 1022.68 1023.03 1023.31 1023.53 1023.71 1023.82 1023.86 1023.79 1023.62 1023.32 1022.91 1022.40 1021.82 1021.22 1020.62 1020.06 1019.56 1019.14 1018.79
1019.93 1020.96 1021.93 1022.71 1023.21 1023.35 1023.09 1022.44 1021.46 1020.25 1018.96 1017.72 1016.68 1015.94 1015.58 1015.63 1016.05 1016.77 1017.70 1018.73 1019.75 1020.69 1021.49 1022.13 1022.61 1022.97 1023.22 1023.41 1023.55 1023.64 1023.68 1023.65 1023.53 1023.29 1022.94 1022.48 1021.92 1021.30 1020.65 1020.02 1019.43 1018.91 1018.46 1018.10
1020.13 1021.06 1021.94 1022.65 1023.10 1023.21 1022.95 1022.32 1021.39 1020.26 1019.06 1017.93 1016.99 1016.35 1016.08 1016.19 1016.66 1017.39 1018.30 1019.29 1020.26 1021.13 1021.86 1022.42 1022.82 1023.10 1023.28 1023.40 1023.46 1023.49 1023.46 1023.36 1023.18 1022.88 1022.48 1021.96 1021.36 1020.70 1020.02 1019.36 1018.75 1018.21 1017.74 1017.36
1020.48 1021.21 1021.90 1022.47 1022.82 1022.88 1022.62 1022.04 1021.21 1020.20 1019.14 1018.16 1017.35 1016.83 1016.64 1016.79 1017.24 1017.94 1018.78 1019.69 1020.57 1021.35 1021.99 1022.48 1022.83 1023.05 1023.19 1023.26 1023.27 1023.24 1023.15 1022.99 1022.74 1022.38 1021.92 1021.35 1020.71 1020.01 1019.30 1018.61 1017.97 1017.40 1016.90 1016.49
1021.00 1021.48 1021.95 1022.33 1022.53 1022.51 1022.24 1021.71 1020.98 1020.12 1019.23 1018.41 1017.75 1017.33 1017.19 1017.35 1017.77 1018.38 1019.12 1019.91 1020.67 1021.35 1021.91 1022.34 1022.65 1022.85 1022.96 1023.00 1022.99 1022.91 1022.77 1022.54 1022.22 1021.80 1021.27 1020.66 1019.96 1019.23 1018.48 1017.75 1017.06 1016.44 1015.89 1015.41
1021.70 1021.92 1022.14 1022.29 1022.33 1022.21 1021.90 1021.41 1020.77 1020.05 1019.32 1018.66 1018.13 1017.81 1017.70 1017.84 1018.19 1018.69 1019.30 1019.95 1020.59 1021.17 1021.66 1022.05 1022.34 1022.53 1022.64 1022.67 1022.64 1022.53 1022.33 1022.04 1021.65 1021.15 1020.56 1019.88 1019.14 1018.35 1017.55 1016.77 1016.02 1015.32 1014.68 1014.11
1022.50 1022.48 1022.45 1022.39 1022.25 1022.01 1021.65 1021.18 1020.62 1020.01 1019.42 1018.89 1018.47 1018.21 1018.13 1018.23 1018.48 1018.87 1019.34 1019.86 1020.38 1020.87 1021.31 1021.67 1021.95 1022.16 1022.27 1022.31 1022.25 1022.10 1021.85 1021.49 1021.02 1020.45 1019.79 1019.05 1018.25 1017.41 1016.55 1015.69 1014.85 1014.05 1013.30 1012.61
1023.27 1023.07 1022.84 1022.59 1022.29 1021.93 1021.51 1021.03 1020.52 1020.00 1019.51 1019.09 1018.75 1018.54 1018.46 1018.50 1018.68 1018.95 1019.30 1019.70 1020.12 1020.54 1020.93 1021.28 1021.57 1021.79 1021.91 1021.94 1021.86 1021.67 1021.35 1020.92 1020.37 1019.73 1019.00 1018.20 1017.34 1016.44 1015.51 1014.56 1013.62 1012.69 1011.80 1010.96
1023.91 1023.59 1023.22 1022.83 1022.40 1021.94 1021.45 1020.96 1020.48 1020.02 1019.60 1019.25 1018.98 1018.79 1018.70 1018.70 1018.79 1018.97 1019.22 1019.53 1019.87 1020.24 1020.61 1020.95 1021.25 1021.47 1021.59 1021.60 1021.49 1021.24 1020.85 1020.34 1019.72 1019.00 1018.21 1017.35 1016.44 1015.48 1014.48 1013.44 1012.38 1011.32 1010.27 1009.27
1024.33 1023.95 1023.51 1023.02 1022.50 1021.97 1021.44 1020.94 1020.47 1020.05 1019.69 1019.38 1019.15 1018.98 1018.87 1018.84 1018.88 1018.98 1019.16 1019.39 1019.69 1020.02 1020.37 1020.70 1021.00 1021.21 1021.32 1021.30 1021.13 1020.81 1020.35 1019.76 1019.06 1018.28 1017.43 1016.53 1015.57 1014.57 1013.50 1012.38 1011.21 1010.00 1008.79 1007.62
1024.46 1024.09 1023.63 1023.11 1022.55 1021.99 1021.44 1020.94 1020.48 1020.10 1019.77 1019.50 1019.29 1019.13 1019.02 1018.96 1018.95 1019.01 1019.13 1019.32 1019.58 1019.88 1020.21 1020.54 1020.81 1021.01 1021.08 1021.00 1020.77 1020.38 1019.84 1019.18 1018.42 1017.59 1016.70 1015.77 1014.78 1013.74 1012.62 1011.42 1010.14 1008.80 1007.43 1006.09
1024.34 1024.00 1023.57 1023.06 1022.51 1021.96 1021.42 1020.94 1020.51 1020.15 1019.85 1019.61 1019.42 1019.26 1019.14 1019.06 1019.02 1019.04 1019.12 1019.28 1019.50 1019.78 1020.09 1020.39 1020.64 1020.79 1020.82 1020.69 1020.39 1019.93 1019.32 1018.60 1017.79 1016.93 1016.02 1015.07 1014.07 1013.00 1011.84 1010.58 1009.21 1007.75 1006.24 1004.74
1024.03 1023.74 1023.36 1022.90 1022.39 1021.87 1021.37 1020.92 1020.53 1020.20 1019.92 1019.70 1019.52 1019.36 1019.22 1019.12 1019.05 1019.04 1019.09 1019.21 1019.41 1019.66 1019.94 1020.20 1020.41 1020.52 1020.49 1020.30 1019.94 1019.42 1018.77 1018.01 1017.18 1016.30 1015.39 1014.44 1013.44 1012.37 1011.18 1009.86 1008.42 1006.86 1005.23 1003.60
1023.62 1023.38 1023.05 1022.65 1022.20 1021.73 1021.29 1020.88 1020.52 1020.22 1019.97 1019.75 1019.56 1019.39 1019.23 1019.10 1018.99 1018.94 1018.96 1019.05 1019.21 1019.42 1019.66 1019.89 1020.06 1020.12 1020.05 1019.82 1019.42 1018.87 1018.19 1017.42 1016.59 1015.72 1014.83 1013.90 1012.91 1011.83 1010.63 1009.28 1007.78 1006.14 1004.42 1002.68
1023.21 1023.00 1022.71 1022.36 1021.97 1021.57 1021.17 1020.81 1020.48 1020.20 1019.95 1019.72 1019.51 1019.31 1019.11 1018.94 1018.79 1018.70 1018.67 1018.71 1018.83 1019.01 1019.22 1019.41 1019.54 1019.58 1019.48 1019.23 1018.82 1018.27 1017.60 1016.85 1016.04 1015.21 1014.34 1013.44 1012.48 1011.41 1010.20 1008.83 1007.29 1005.60 1003.81 1002.01
1022.85 1022.66 1022.40 1022.09 1021.75 1021.39 1021.04 1020.70 1020.39 1020.11 1019.84 1019.59 1019.34 1019.08 1018.83 1018.60 1018.40 1018.26 1018.18 1018.19 1018.27 1018.41 1018.58 1018.75 1018.87 1018.89 1018.80 1018.56 1018.17 1017.65 1017.03 1016.32 1015.57 1014.78 1013.96 1013.10 1012.15 1011.10 1009.90 1008.52 1006.96 1005.25 1003.44 1001.60
1022.61 1022.40 1022.15 1021.87 1021.55 1021.22 1020.89 1020.56 1020.25 1019.94 1019.63 1019.33 1019.02 1018.70 1018.39 1018.09 1017.84 1017.64 1017.52 1017.48 1017.53 1017.64 1017.80 1017.96 1018.08 1018.12 1018.05 1017.85 1017.52 1017.07 1016.51 1015.88 1015.19 1014.46 1013.70 1012.87 1011.97 1010.94 1009.75 1008.38 1006.84 1005.14 1003.33 1001.50
1022.49 1022.26 1022.00 1021.72 1021.41 1021.08 1020.74 1020.39 1020.04 1019.69 1019.32 1018.95 1018.57 1018.18 1017.79 1017.44 1017.13 1016.89 1016.73 1016.67 1016.69 1016.80 1016.96 1017.13 1017.27 1017.35 1017.33 1017.19 1016.94 1016.57 1016.10 1015.55 1014.94 1014.29 1013.58 1012.80 1011.93 1010.93 1009.78 1008.45 1006.94 1005.29 1003.53 1001.75
1022.48 1022.22 1021.95 1021.65 1021.32 1020.96 1020.59 1020.20 1019.79 1019.37 1018.93 1018.48 1018.02 1017.56 1017.12 1016.71 1016.36 1016.09 1015.92 1015.85 1015.87 1015.99 1016.16 1016.36 1016.54 1016.67 1016.72 1016.66 1016.49 1016.22 1015.84 1015.38 1014.86 1014.27 1013.63 1012.90 1012.08 1011.12 1010.02 1008.75 1007.32 1005.75 1004.09 1002.40
Thickness
5571 5559 5551 5550 5547 5546 5544 5542 5541 5544 5542 5534 5530 5530 5534 5534 5529 5524 5520 5515 5512 5510 5507 5505 5502 5499 5497 5495 5494 5495 5495 5497 5499 5502 5504 5507 5511 5514 5519 5523 5526 5531 5535 5539
5560 5548 5547 5545 5542 5538 5536 5532 5533 5537 5532 5526 5522 5523 5529 5529 5524 5518 5514 5508 5505 5502 5498 5495 5492 5489 5486 5484 5484 5484 5484 5485 5488 5490 5493 5496 5499 5503 5506 5510 5515 5519 5522 5527
5548 5542 5540 5536 5532 5529 5529 5524 5523 5518 5516 5520 5512 5514 5524 5523 5520 5514 5508 5502 5498 5494 5489 5485 5483 5480 5477 5475 5474 5475 5474 5475 5477 5479 5481 5485 5488 5491 5495 5499 5503 5507 5511 5516
5540 5535 5531 5526 5521 5518 5517 5517 5512 5506 5496 5499 5506 5493 5516 5515 5509 5505 5497 5492 5488 5485 5481 5476 5473 5471 5468 5466 5465 5464 5465 5466 5467 5469 5471 5474 5477 5480 5484 5487 5492 5496 5501 5506
5530 5525 5519 5515 5512 5507 5504 5504 5500 5496 5490 5485 5495 5484 5500 5508 5499 5494 5490 5485 5480 5476 5472 5467 5463 5462 5460 5458 5456 5455 5455 5456 5458 5460 5462 5464 5468 5471 5474 5478 5481 5486 5490 5495
5519 5516 5511 5506 5502 5500 5495 5493 5493 5488 5481 5476 5490 5481 5491 5495 5493 5488 5482 5477 5472 5467 5463 5458 5454 5452 5451 5449 5447 5446 5446 5448 5449 5451 5453 5455 5458 5461 5465 5468 5471 5475 5479 5484
5514 5507 5499 5496 5491 5489 5483 5478 5476 5474 5472 5482 5489 5481 5483 5491 5488 5480 5473 5467 5462 5457 5452 5448 5445 5443 5442 5441 5440 5440 5440 5440 5441 5443 5444 5447 5450 5454 5457 5460 5463 5465 5469 5474
5504 5499 5488 5483 5480 5474 5474 5472 5464 5459 5469 5478 5473 5473 5481 5479 5474 5469 5464 5458 5452 5447 5443 5440 5438 5435 5434 5433 5432 5432 5433 5433 5434 5436 5438 5440 5443 5446 5449 5453 5455 5457 5460 5465
5486 5488 5478 5474 5470 5466 5466 5459 5458 5451 5452 5448 5469 5483 5476 5470 5462 5457 5452 5447 5442 5438 5435 5432 5429 5427 5426 5425 5425 5425 5425 5426 5428 5429 5431 5434 5436 5438 5442 5445 5447 5449 5453 5457
5472 5465 5470 5462 5459 5455 5452 5451 5442 5437 5437 5443 5468 5474 5462 5451 5448 5443 5439 5435 5433 5430 5427 5425 5422 5420 5419 5418 5418 5418 5418 5419 5420 5422 5423 5427 5429 5431 5434 5437 5439 5443 5446 5449
5460 5453 5456 5453 5446 5445 5438 5438 5435 5433 5438 5432 5437 5451 5449 5442 5436 5432 5428 5425 5422 5420 5418 5416 5414 5413 5411 5411 5412 5412 5412 5412 5414 5415 5417 5418 5421 5423 5426 5429 5432 5435 5438 5440
5448 5441 5441 5449 5440 5437 5436 5433 5426 5416 5418 5422 5419 5431 5438 5432 5427 5422 5417 5415 5411 5409 5408 5406 5404 5404 5403 5403 5403 5404 5405 5405 5407 5408 5409 5411 5413 5415 5417 5420 5423 5426 5429 5433
5433 5426 5427 5437 5428 5420 5420 5420 5414 5407 5404 5407 5411 5422 5427 5421 5414 5410 5405 5402 5401 5399 5398 5396 5394 5394 5393 5393 5394 5396 5396 5397 5398 5400 5401 5402 5404 5406 5408 5411 5413 5417 5420 5423
5422 5412 5415 5424 5428 5416 5409 5407 5400 5393 5389 5397 5407 5414 5415 5405 5400 5396 5393 5391 5390 5388 5386 5385 5384 5384 5384 5384 5385 5387 5388 5389 5390 5391 5392 5394 5396 5398 5400 5402 5405 5408 5411 5414
5408 5401 5406 5409 5415 5411 5405 5401 5391 5384 5388 5388 5400 5401 5401 5393 5388 5384 5382 5382 5381 5378 5376 5375 5374 5374 5375 5375 5376 5377 5378 5379 5381 5382 5384 5386 5387 5389 5391 5393 5396 5398 5401 5404
5398 5391 5395 5397 5405 5400 5398 5399 5391 5384 5382 5382 5385 5388 5388 5380 5375 5373 5370 5369 5367 5364 5364 5364 5364 5364 5364 5365 5366 5367 5368 5370 5371 5372 5375 5377 5378 5380 5382 5384 5387 5388 5391 5394
5384 5378 5379 5388 5396 5391 5390 5392 5386 5381 5376 5373 5371 5376 5374 5369 5365 5360 5358 5356 5353 5351 5351 5352 5352 5352 5353 5354 5356 5357 5358 5360 5361 5363 5365 5367 5369 5371 5372 5374 5376 5378 5381 5383
5374 5369 5369 5374 5376 5373 5390 5385 5383 5376 5372 5367 5365 5364 5360 5355 5352 5350 5347 5342 5340 5340 5339 5340 5341 5342 5343 5344 5345 5347 5349 5350 5351 5352 5355 5357 5359 5361 5362 5364 5366 5368 5370 5372
5369 5363 5362 5363 5363 5375 5381 5373 5365 5359 5358 5356 5352 5350 5347 5344 5345 5345 5339 5333 5329 5328 5328 5329 5330 5331 5333 5334 5335 5337 5339 5341 5342 5343 5344 5346 5348 5351 5353 5354 5355 5357 5359 5361
5357 5353 5349 5355 5353 5358 5369 5358 5356 5351 5348 5346 5342 5337 5334 5332 5331 5332 5327 5323 5321 5320 5319 5320 5320 5321 5322 5324 5326 5328 5329 5330 5331 5332 5333 5335 5337 5340 5342 5343 5345 5346 5348 5350
5342 5340 5339 5343 5343 5354 5349 5346 5347 5342 5342 5333 5330 5326 5321 5317 5315 5314 5314 5313 5311 5311 5310 5311 5311 5311 5312 5314 5315 5317 5318 5319 5321 5323 5324 5325 5327 5329 5331 5333 5334 5335 5337 5339
5339 5335 5334 5336 5334 5341 5334 5333 5329 5327 5324 5322 5318 5314 5310 5306 5306 5305 5303 5302 5301 5300 5301 5301 5301 5301 5302 5303 5305 5306 5307 5309 5311 5313 5314 5315 5316 5318 5320 5322 5324 5324 5326 5327
5340 5338 5335 5333 5336 5334 5326 5322 5318 5316 5312 5310 5307 5303 5300 5297 5296 5296 5294 5293 5292 5291 5290 5291 5291 5292 5293 5294 5294 5295 5297 5299 5301 5303 5304 5305 5306 5308 5309 5311 5312 5312 5314 5315
5335 5330 5327 5323 5326 5322 5317 5313 5310 5306 5302 5300 5296 5293 5290 5288 5286 5285 5284 5283 5282 5281 5280 5281 5281 5282 5283 5284 5285 5286 5288 5289 5291 5293 5294 5295 5296 5297 5298 5299 5301 5301 5302 5303
5326 5317 5315 5314 5313 5311 5308 5303 5298 5295 5292 5289 5286 5283 5280 5278 5276 5275 5273 5273 5272 5272 5271 5271 5271 5272 5273 5274 5276 5278 5279 5280 5281 5283 5284 5285 5286 5286 5287 5288 5289 5290 5291 5292
5310 5304 5301 5306 5302 5296 5294 5291 5288 5284 5281 5278 5274 5272 5270 5268 5266 5265 5264 5263 5262 5262 5262 5262 5263 5263 5264 5266 5267 5268 5269 5270 5271 5272 5273 5274 5274 5275 5276 5277 5278 5279 5280 5282